[Iaude] MPEC R86: 2016 RL17 [a=0.86,e=0.33,i=3.2,H=26.5]

mpec at mpc.eps.harvard.edu mpec at mpc.eps.harvard.edu
Wed Sep 7 19:57:17 EDT 2016


M.P.E.C. 2016-R86                                Issued 2016 Sept. 7, 23:54 UT
 
     The Minor Planet Electronic Circulars contain information on unusual
         minor planets and routine data on comets.  They are published
    on behalf of Division F of the International Astronomical Union by the
          Minor Planet Center, Smithsonian Astrophysical Observatory,
                          Cambridge, MA 02138, U.S.A.

             Prepared using the Tamkin Foundation Computer Network

                              MPC at CFA.HARVARD.EDU
            URL http://www.minorplanetcenter.net/    ISSN 1523-6714


                                   2016 RL17
 
Observations:
     K16R17L* C2016 09 05.30603 21 39 09.56 -05 30 13.4          20.2 VqER086G96
     K16R17L  C2016 09 05.31035 21 39 02.31 -05 31 02.3          19.8 VqER086G96
     K16R17L  C2016 09 05.31462 21 38 55.22 -05 31 51.3          19.8 VqER086G96
     K16R17L  C2016 09 05.31892 21 38 48.19 -05 32 39.6          19.9 VqER086G96
     K16R17L  C2016 09 05.35196 21 37 53.09 -05 38 57.9          19.7 VqER086G96
     K16R17L  C2016 09 05.35329 21 37 50.88 -05 39 13.9          19.6 VqER086G96
     K16R17L  C2016 09 05.35474 21 37 48.44 -05 39 29.8          20.1 VqER086G96
     K16R17L  C2016 09 05.35606 21 37 46.25 -05 39 44.9          19.9 VqER086G96
     K16R17L KC2016 09 05.37740 21 37 10.70 -05 43 49.0                oER086291
     K16R17L KC2016 09 05.37885 21 37 08.27 -05 44 05.8                oER086291
     K16R17L KC2016 09 05.38033 21 37 05.79 -05 44 23.0                oER086291
     K16R17L  C2016 09 06.18614 21 14 20.34 -08 31 13.9          19.4 VqER086G96
     K16R17L  C2016 09 06.19320 21 14 06.44 -08 32 47.0          19.8 VqER086G96
     K16R17L  C2016 09 06.20024 21 13 52.39 -08 34 20.2          19.4 VqER086G96
     K16R17L KC2016 09 06.28508021 10 57.19 -08 53 25.6          19.9 VuER086H21
     K16R17L KC2016 09 06.28863421 10 50.20 -08 54 12.7          20.0 VuER086H21
     K16R17L KC2016 09 06.29234721 10 42.80 -08 55 01.4          20.0 VuER086H21
     K16R17L KC2016 09 06.89775820 50 41.58 -11 15 29.5                qER086J95
     K16R17L KC2016 09 06.90565620 50 24.01 -11 17 22.3                qER086J95
     K16R17L KC2016 09 06.91346520 50 06.66 -11 19 13.7          19.9 RqER086J95
     K16R17L KC2016 09 07.15974520 41 10.31 -12 17 41.4          19.7 VuER086H21
     K16R17L KC2016 09 07.16253420 41 03.79 -12 18 21.9          19.8 VuER086H21
     K16R17L KC2016 09 07.16602020 40 55.59 -12 19 12.2          19.2 VuER086H21
     K16R17L KC2016 09 07.17070820 40 44.62 -12 20 20.0          19.8 VuER086H21
 
Observer details:
291 LPL/Spacewatch II.  Observer T. H. Bressi.  1.8-m f/2.7 reflector + CCD.
G96 Mt. Lemmon Survey.  Observers R. G. Matheny, D. C. Fuls.  Measurers
    E. J. Christensen, D. C. Fuls, A. R. Gibbs, A. D. Grauer, J. A. Johnson,
    R. A. Kowalski, S. M. Larson, G. J. Leonard, R. G. Matheny, R. L. Seaman,
    F. C. Shelly.  1.5-m reflector + 10K CCD.
H21 Astronomical Research Observatory, Westfield.  Observer R. Holmes.
    Measurers S. Foglia, L. Buzzi, T. Linder, R. Holmes.  0.61-m f/4.5
    astrograph + CCD, 0.76-m f/3.0 astrograph + CCD.
J95 Great Shefford.  Observer P. Birtwhistle.  0.40-m f/6.0 Schmidt-Cassegrain
    + CCD.
 
Orbital elements:
2016 RL17                                                Earth MOID = 0.0014 AU
Epoch 2016 July 31.0 TT = JDT 2457600.5                 MPC
M 200.85451              (2000.0)            P               Q
n   1.24296807     Peri.  318.52903     -0.57353027     -0.81908174
a   0.8567013      Node   166.45111     +0.76541404     -0.54145739
e   0.3316576      Incl.    3.17278     +0.29189789     -0.18954945
P   0.79           H   26.5           G   0.15           U   8
Residuals in seconds of arc
160905 G96  0.7+  0.1-    160905 291  0.0   0.2+    160906 H21  0.0   0.2-
160905 G96  0.1-  0.4+    160905 291  0.3-  0.0     160906 J95  0.4+  0.1-
160905 G96  0.4+  0.2+    160905 291  0.5-  0.1-    160906 J95  0.2-  0.1-
160905 G96 (2.4+  1.0+)   160906 G96  0.7-  0.6-    160906 J95  0.1-  0.1-
160905 G96 (2.2+  1.1+)   160906 G96  0.3+  0.2-    160907 H21  0.4-  0.2+
160905 G96 (2.3+  0.3+)   160906 G96  1.1-  0.1-    160907 H21  0.2-  0.1+
160905 G96 (1.9+  1.1+)   160906 H21  0.1+  0.0     160907 H21  0.7-  0.3+
160905 G96 (2.1+  1.1+)   160906 H21  0.8+  0.4-    160907 H21  0.5-  0.4+

Ephemeris:
2016 RL17                a,e,i = 0.86, 0.33, 3                   q = 0.5726
Date    TT    R. A. (2000) Decl.     Delta      r     Elong.  Phase     V
2016 08 08    00 05 14.3 +11 10 57   0.1538  1.1177   129.3    44.6    24.4
...
2016 08 23    23 47 08.9 +09 51 29   0.08192 1.0812   147.5    30.1    22.5
...
2016 08 31    23 04 18.2 +05 03 45   0.04699 1.0549   164.8    14.5    20.8
...
2016 09 06    21 19 55.8 -07 47 10   0.02638 1.0320   155.2    24.1    19.8
2016 09 07    20 47 03.4 -11 34 20   0.02428 1.0279   145.9    33.3    19.9
2016 09 08    20 08 05.3 -15 38 35   0.02286 1.0238   135.1    44.0    20.0
...
2016 09 14    16 05 16.6 -26 48 50   0.03078 0.9974    73.2   105.1    22.8
...
2016 09 22    14 13 37.4 -23 06 27   0.06082 0.9583    40.6   137.0    26.8
...
2016 10 07    13 19 46.6 -18 28 54   0.1301  0.8743    14.7   163.1    34.0

A. U. Tomatic                (C) Copyright 2016 MPC           M.P.E.C. 2016-R86




More information about the Iaude mailing list